Regional Weather Roundup
Issued by NWS Cleveland, OH

Home | Current Version | Previous Version | Graphics & Text | Print | Product List | Glossary On
Versions: 1 2 3 4 5 6 7 8 9 10 11 12 13 14 15 16 17 18 19 20 21 22 23 24 25 26 27 28 29 30 31 32 33 34 35 36 37 38 39 40 41 42 43 44 45 46 47 48 49 50
000
ASUS41 KCLE 271202
RWRCLE
OHIO REGIONAL WEATHER ROUNDUP
NATIONAL WEATHER SERVICE CLEVELAND, OH
800 AM EDT MON APR 27 2015

NOTE: "FAIR" INDICATES FEW OR NO CLOUDS BELOW 12,000 FEET WITH NO
SIGNIFICANT WEATHER AND/OR OBSTRUCTIONS TO VISIBILITY.

OHZ001>008-015>018-024>027-034-035-043-044-271300-
   NORTHWEST OHIO

CITY           SKY/WX    TMP DP  RH WIND       PRES   REMARKS
DEFIANCE       PTSUNNY   41  35  79 NW5       29.95S
FINDLAY        CLOUDY    41  35  79 W5        29.92R
TOLEDO EXPRESS PTSUNNY   42  33  70 NW7       29.94R
TOLEDO EXEC    PTSUNNY   44  32  62 N8        29.94S
LIMA           PTSUNNY   38  32  79 CALM      29.93R
$$

OHZ009>014-019>023-028>033-038-089-271300-
   NORTHEAST OHIO

CITY           SKY/WX    TMP DP  RH WIND       PRES   REMARKS
CLE-HOPKINS    LGT RAIN  42  36  79 N15G23    29.93R
CLE-LAKEFRONT  LGT RAIN  41  37  86 NW21      29.90R
CUY CO. ARPT   CLOUDY    41  37  87 NW12      29.90R
LORAIN-ELYRIA  CLOUDY    43  36  76 N14       29.91R
ASHTABULA      LGT RAIN  39  35  86 NW7       29.87S
AKRON-CANTON   MOSUNNY   41  34  76 NW10      29.88R
WOOSTER        PTSUNNY   40  34  79 NW8       29.89S
MANSFIELD      CLOUDY    39  33  79 W5        29.90S
YOUNGSTOWN     CLOUDY    39  34  82 NW12      29.85R
$$

OHZ042-051>053-060>062-070>072-077>081-271300-
  SOUTHWEST OHIO

CITY           SKY/WX    TMP DP  RH WIND       PRES   REMARKS
CINC-COVINGTON SUNNY     39  36  89 CALM      29.97R
CINC-LUNKEN    PTSUNNY   37  37 100 S5        29.98R FOG
HAMILTON       SUNNY     40  38  93 CALM      29.97R
DAYTON         SUNNY     44  37  76 CALM      29.95R
WRIGHT-PAT AFB NOT AVBL
DAYTON GENERAL SUNNY     41  34  76 NW5       29.94R
WILMINGTON     SUNNY     41  34  76 CALM      29.94R
$$

OHZ036-037-039>041-045>050-054>059-063>069-073>076-082>088-271300-
  CENTRAL AND SOUTHEAST OHIO

CITY           SKY/WX    TMP DP  RH WIND       PRES   REMARKS
COLUMBUS       MOSUNNY   41  32  70 N3        29.92S
OSU AIRPORT    SUNNY     41  33  73 NW3       29.92S
BOLTON FIELD   SUNNY     37  34  87 W3        29.93F
RICKENBACK AFB SUNNY     37  33  82 CALM      29.92F
NEWARK         SUNNY     41  33  73 CALM      29.91S
MARION         PTSUNNY   38  32  79 NW3       29.92R
LANCASTER      MOSUNNY   37  34  89 CALM      29.92S
ZANESVILLE     SUNNY     40  31  70 N5        29.91R
NEW PHILLY     PTSUNNY   41  32  70 NW8       29.90R
$$



USA.gov is the U.S. government's official web portal to all federal, state and local government web resources and services.